Powrót do katalogu

SKYKRAFT-1

AktywnyNaukaPO
NORAD 55041·PAYLOAD·🇦🇺 Australia

Wystrzelony Jan 3, 2023 z Cape Canaveral Space Force Station

Loading…

Następne Przeloty (najbliższe 24 godziny)

TLE

ŚwieżeSource: Space-Track

Epoka: Sep 14, 2026, 04:48 UTC

1 55041U 23001AJ  26257.20032878  .00084278  00000-0  51370-3 0  9991
2 55041  97.3091 338.7270 0002888 112.0952 248.0621 15.77177982207031

Śledź SKYKRAFT-1 w czasie rzeczywistym z AllMySat

Download on the App Store